Weather History for Gadsden, AL

Change the Weather History Date:

Sunday, September 22, 2013

  Actual Average Record
Temperature  
Mean Temperature 68 °F -  
Max Temperature 80 °F 79 °F 100 °F (1931)
Min Temperature 55 °F 56 °F 42 °F (1938)
Cooling Degree Days 2    
Growing Degree Days 18 (Base 50)    
Moisture  
Dew Point 56 °F    
Average Humidity 73    
Maximum Humidity 88    
Minimum Humidity 42    
Precipitation  
Precipitation 0.00 in - - ()
Sea Level Pressure  
Sea Level Pressure 29.85 in    
Wind  
Wind Speed 3 mph (NNE)    
Max Wind Speed 14 mph    
Max Gust Speed -    
Visibility 10 miles    
Events      
Averages and records for this station are not official NWS values.
T = Trace of Precipitation, MM = Missing Value Source: NWS Daily Summary

Daily Weather History Graph

Daily Weather History Graph

Search for Another Location

Airport:

Trip Planner

Search our weather history database for the weather conditions in past years. The results will help you decide how hot, cold, wet, or windy it might be!

Date:

Astronomy

Sep. 22, 2013 Rise Set
Actual Time 6:32 AM CDT 6:40 PM CDT
Civil Twilight 6:07 AM CDT 7:05 PM CDT
Nautical Twilight 5:38 AM CDT 7:34 PM CDT
Astronomical Twilight 5:09 AM CDT 8:04 PM CDT
Moon 8:41 PM CDT (9/22) 9:41 AM CDT (9/22)
Length of Visible Light 12h 58m
Length of Day
12h 08m
Waning Gibbous, 88% of the Moon is Illuminated
Sep 22
Waning Gibbous
Sep 26
Last Quarter
Oct 4
New
Oct 11
First Quarter
Oct 18
Full

Hourly Weather History & Observations

Time (CDT) Temp. Heat Index Dew Point Humidity Pressure Visibility Wind Dir Wind Speed Gust Speed Precip Events Conditions
12:15 AM 62.6 °F - 57.2 °F 82% 29.83 in 8.0 mi North 3.5 mph - N/A   Clear
12:35 AM 60.8 °F - 57.2 °F 88% 29.83 in 10.0 mi Calm Calm - N/A   Clear
12:55 AM 60.8 °F - 55.4 °F 82% 29.83 in 8.0 mi Calm Calm - N/A   Clear
1:15 AM 60.8 °F - 55.4 °F 82% 29.83 in 10.0 mi Calm Calm - N/A   Clear
1:35 AM 60.8 °F - 55.4 °F 82% 29.83 in 10.0 mi NNE 4.6 mph - N/A   Clear
1:55 AM 59.0 °F - 55.4 °F 88% 29.83 in 10.0 mi North 3.5 mph - N/A   Clear
2:15 AM 59.0 °F - 53.6 °F 82% 29.83 in 10.0 mi Calm Calm - N/A   Clear
2:35 AM 59.0 °F - 53.6 °F 82% 29.82 in 10.0 mi North 4.6 mph - N/A   Clear
2:55 AM 59.0 °F - 53.6 °F 82% 29.82 in 10.0 mi North 4.6 mph - N/A   Clear
3:15 AM 57.2 °F - 53.6 °F 88% 29.82 in 10.0 mi North 5.8 mph - N/A   Clear
3:35 AM 57.2 °F - 53.6 °F 88% 29.82 in 10.0 mi North 6.9 mph - N/A   Clear
3:55 AM 57.2 °F - 53.6 °F 88% 29.82 in 10.0 mi North 5.8 mph - N/A   Clear
4:15 AM 57.2 °F - 53.6 °F 88% 29.82 in 10.0 mi North 5.8 mph - N/A   Clear
4:35 AM 57.2 °F - 53.6 °F 88% 29.83 in 10.0 mi North 4.6 mph - N/A   Clear
4:55 AM 57.2 °F - 51.8 °F 82% 29.83 in 10.0 mi North 4.6 mph - N/A   Clear
5:15 AM 57.2 °F - 51.8 °F 82% 29.83 in 10.0 mi North 4.6 mph - N/A   Clear
5:35 AM 55.4 °F - 51.8 °F 88% 29.84 in 10.0 mi North 4.6 mph - N/A   Clear
5:55 AM 55.4 °F - 51.8 °F 88% 29.84 in 10.0 mi North 5.8 mph - N/A   Clear
6:15 AM 55.4 °F - 51.8 °F 88% 29.84 in 10.0 mi North 6.9 mph - N/A   Clear
6:35 AM 55.4 °F - 51.8 °F 88% 29.85 in 10.0 mi North 5.8 mph - N/A   Clear
6:55 AM 55.4 °F - 51.8 °F 88% 29.85 in 10.0 mi North 4.6 mph - N/A   Clear
7:15 AM 55.4 °F - 51.8 °F 88% 29.85 in 10.0 mi North 3.5 mph - N/A   Clear
7:35 AM 57.2 °F - 53.6 °F 88% 29.86 in 10.0 mi North 5.8 mph - N/A   Clear
7:55 AM 57.2 °F - 53.6 °F 88% 29.86 in 10.0 mi North 8.1 mph - N/A   Clear
8:15 AM 60.8 °F - 53.6 °F 77% 29.87 in 10.0 mi NNE 5.8 mph - N/A   Clear
8:35 AM 62.6 °F - 53.6 °F 72% 29.87 in 10.0 mi NNE 8.1 mph - N/A   Clear
8:55 AM 62.6 °F - 53.6 °F 72% 29.87 in 10.0 mi NNE 11.5 mph - N/A   Clear
9:15 AM 64.4 °F - 53.6 °F 68% 29.87 in 10.0 mi North 9.2 mph - N/A   Clear
9:35 AM 64.4 °F - 53.6 °F 68% 29.88 in 10.0 mi NNE 13.8 mph - N/A   Clear
9:55 AM 66.2 °F - 55.4 °F 68% 29.88 in 10.0 mi NNE 11.5 mph - N/A   Clear
10:35 AM 69.8 °F - 55.4 °F 60% 29.88 in 10.0 mi NE 9.2 mph - N/A   Clear
10:55 AM 69.8 °F - 55.4 °F 60% 29.88 in 10.0 mi NE 8.1 mph - N/A   Clear
11:15 AM 71.6 °F - 55.4 °F 57% 29.88 in 10.0 mi NE 5.8 mph - N/A   Clear
11:35 AM 71.6 °F - 55.4 °F 57% 29.87 in 10.0 mi North 5.8 mph - N/A   Clear
11:55 AM 73.4 °F - 57.2 °F 57% 29.87 in 10.0 mi East 3.5 mph - N/A   Clear
12:15 PM 73.4 °F - 57.2 °F 57% 29.88 in 10.0 mi Calm Calm - N/A   Clear
12:35 PM 73.4 °F - 57.2 °F 57% 29.87 in 10.0 mi North 3.5 mph - N/A   Clear
12:55 PM 75.2 °F - 57.2 °F 53% 29.87 in 10.0 mi North 3.5 mph - N/A   Clear
1:15 PM 75.2 °F - 57.2 °F 53% 29.86 in 10.0 mi Calm Calm - N/A   Scattered Clouds
1:35 PM 75.2 °F - 57.2 °F 53% 29.85 in 10.0 mi North 3.5 mph - N/A   Mostly Cloudy
2:15 PM 77.0 °F - 55.4 °F 47% 29.85 in 10.0 mi ENE 4.6 mph - N/A   Mostly Cloudy
2:35 PM 77.0 °F - 57.2 °F 50% 29.85 in 10.0 mi Calm Calm - N/A   Mostly Cloudy
2:55 PM 78.8 °F - 57.2 °F 47% 29.85 in 10.0 mi Calm Calm - N/A   Mostly Cloudy
3:15 PM 78.8 °F - 57.2 °F 47% 29.84 in 10.0 mi Calm Calm - N/A   Mostly Cloudy
3:35 PM 78.8 °F - 57.2 °F 47% 29.84 in 10.0 mi NNW 3.5 mph - N/A   Mostly Cloudy
3:55 PM 75.2 °F - 57.2 °F 53% 29.84 in 10.0 mi North 4.6 mph - N/A   Mostly Cloudy
4:15 PM 78.8 °F - 55.4 °F 44% 29.83 in 10.0 mi Calm Calm - N/A   Scattered Clouds
4:35 PM 80.6 °F 80.8 °F 57.2 °F 45% 29.83 in 10.0 mi ENE 5.8 mph - N/A   Mostly Cloudy
4:55 PM 80.6 °F 80.5 °F 55.4 °F 42% 29.83 in 10.0 mi ENE 3.5 mph - N/A   Mostly Cloudy
5:15 PM 77.0 °F - 57.2 °F 50% 29.83 in 10.0 mi North 4.6 mph - N/A   Mostly Cloudy
5:35 PM 73.4 °F - 59.0 °F 61% 29.83 in 10.0 mi Calm Calm - N/A   Scattered Clouds
6:15 PM 73.4 °F - 60.8 °F 65% 29.84 in 10.0 mi Calm Calm - N/A   Scattered Clouds
6:35 PM 69.8 °F - 60.8 °F 73% 29.84 in 10.0 mi Calm Calm - N/A   Clear
6:55 PM 68.0 °F - 62.6 °F 83% 29.84 in 10.0 mi Calm Calm - N/A   Clear
7:15 PM 66.2 °F - 60.8 °F 83% 29.85 in 10.0 mi Calm Calm - N/A   Partly Cloudy
7:35 PM 66.2 °F - 60.8 °F 83% 29.86 in 10.0 mi Calm Calm - N/A   Mostly Cloudy
7:55 PM 66.2 °F - 60.8 °F 83% 29.86 in 10.0 mi Calm Calm - N/A   Overcast
8:15 PM 66.2 °F - 60.8 °F 83% 29.87 in 10.0 mi Calm Calm - N/A   Mostly Cloudy
8:35 PM 64.4 °F - 59.0 °F 83% 29.88 in 10.0 mi Calm Calm - N/A   Clear
8:55 PM 64.4 °F - 59.0 °F 83% 29.88 in 10.0 mi Calm Calm - N/A   Clear
9:15 PM 62.6 °F - 57.2 °F 82% 29.88 in 10.0 mi Calm Calm - N/A   Clear
9:35 PM 62.6 °F - 57.2 °F 82% 29.88 in 10.0 mi Calm Calm - N/A   Clear
9:55 PM 60.8 °F - 57.2 °F 88% 29.89 in 10.0 mi Calm Calm - N/A   Clear
10:15 PM 60.8 °F - 57.2 °F 88% 29.89 in 10.0 mi Calm Calm - N/A   Clear
10:35 PM 60.8 °F - 55.4 °F 82% 29.89 in 10.0 mi Calm Calm - N/A   Clear
10:55 PM 60.8 °F - 55.4 °F 82% 29.90 in 10.0 mi Calm Calm - N/A   Clear
11:15 PM 60.8 °F - 55.4 °F 82% 29.90 in 10.0 mi Calm Calm - N/A   Clear
11:55 PM 59.0 °F - 53.6 °F 82% 29.90 in 10.0 mi Calm Calm - N/A   Clear